Location: Martz Observatory
(42.0083°N, 79.0667°W)
Time: 14:19:12
(UTC-04:00)

Cosmos 1315 Rocket - Pass Details

Date: 26 May 2018
Orbit: 531 x 569 km, 81.2° (Epoch: 20 June)

Event Time Altitude Azimuth Distance (km) Brightness Sun altitude
Exits shadow 01:28:16 35° 47° (NE) 869 4.1 -26.8°
Drops below altitude 10° 01:30:54 10° 21° (NNE) 1,799 6.4 -26.7°
Sets 01:33:07 0° 16° (NNE) 2,700 7.6 -26.7°
